Temp
70 71 72 72 63 57 55 61 70 68 68 73 76 72 68 66 66 56 72 73 74 72 74 77 79 79 79 78 78 78 78 78 78 78 78 78 78 78 78 78 79 80 80 80 80 80 80 80 80
69 73 72 65 56 50 56 64 66 68 73 75 75 73 68 62 70 69 70 74 74 73 72 74 79 79 78 78 78 78 78 78 78 78 78 78 78 78 78 79 80 80 80 80 80 80 80 80 80
72 74 67 58 51 52 56 66 66 71 76 75 71 74 69 63 71 71 73 73 72 71 72 74 79 78 78 78 78 78 78 78 78 78 78 78 78 78 78 79 79 80 80 80 80 79 80 79 79
71 69 66 58 53 60 64 68 70 70 74 76 73 66 72 76 72 73 73 73 72 70 71 78 78 78 78 78 77 78 78 78 78 78 78 78 78 78 78 79 79 79 79 79 79 79 78 78 79
68 64 57 53 57 63 68 74 73 70 71 73 73 65 66 73 74 73 73 73 70 69 71 75 78 78 78 78 78 78 78 78 78 78 78 78 78 78 78 78 79 79 79 79 79 78 78 78 79
64 62 55 52 59 70 69 74 74 70 71 71 69 67 65 72 71 72 72 69 70 70 71 73 78 78 78 78 77 77 77 78 78 78 78 78 78 78 78 78 78 78 78 79 78 78 77 77 78
63 59 53 53 59 62 69 74 69 70 70 70 73 63 64 69 71 72 69 68 70 74 70 71 72 75 78 77 77 77 77 77 77 77 77 78 78 77 77 77 78 78 78 78 78 78 77 77 77
63 61 52 54 59 60 71 74 75 72 71 79 76 63 60 69 72 70 68 68 73 74 69 68 69 70 70 71 77 77 77 77 77 77 77 77 77 77 77 75 77 78 78 78 78 78 77 77 76
65 58 53 57 60 63 69 67 73 78 74 75 77 71 73 73 71 68 66 69 72 72 69 68 68 67 68 69 74 77 78 77 77 77 77 75 71 72 74 77 77 78 78 78 78 77 77 78 77
63 55 59 67 69 64 69 70 73 71 71 69 71 73 73 71 69 66 65 66 69 70 70 67 67 66 67 73 69 69 71 70 70 71 71 70 70 70 75 76 78 77 78 77 76 76 75 75 72
59 61 64 72 70 74 70 69 73 69 63 69 68 68 70 69 69 68 68 67 67 69 71 69 66 66 66 68 66 66 66 67 68 69 69 69 70 69 70 70 71 71 75 73 72 71 70 70 71
60 68 68 72 74 73 71 73 73 71 71 75 74 72 71 69 68 68 68 68 68 68 70 69 67 66 65 66 66 66 66 66 66 68 69 67 68 69 69 70 70 70 72 72 71 69 68 69 70
62 68 71 72 73 73 75 71 70 72 75 76 75 73 70 70 70 71 71 70 69 68 69 69 68 66 66 65 66 65 65 67 67 68 69 68 68 69 70 71 69 69 71 71 71 69 68 69 70
69 68 70 68 69 73 71 69 73 73 75 74 72 70 71 71 71 70 70 69 68 70 69 69 68 68 67 65 65 66 66 67 67 68 69 70 69 70 71 70 69 69 70 70 70 69 67 68 70
67 64 67 67 67 69 76 67 68 71 74 73 73 72 72 72 73 72 73 71 72 72 72 69 69 68 67 66 65 66 67 69 67 68 69 71 71 70 71 70 70 71 70 71 69 68 68 67 68
62 62 57 62 68 70 73 64 68 71 71 71 73 73 73 72 73 75 75 74 72 72 71 70 75 70 68 66 66 66 67 67 68 68 69 71 72 72 70 71 69 71 70 70 68 66 65 65 66
58 53 52 60 66 68 66 62 70 71 71 71 72 73 74 73 72 74 76 74 72 73 71 69 71 69 68 67 67 66 67 67 68 69 69 71 73 74 71 70 69 69 68 68 68 66 65 64 64
55 55 51 55 63 65 63 64 66 71 72 71 72 73 73 72 73 75 74 75 73 70 71 70 68 68 67 68 67 68 68 67 68 69 70 71 72 74 71 69 68 69 68 67 66 66 65 65 65
60 57 56 60 67 66 66 67 67 71 71 69 70 71 71 72 77 73 73 73 71 68 67 67 68 67 69 67 67 67 66 68 69 69 70 71 72 73 70 69 68 68 67 67 66 66 65 65 64
58 55 55 61 65 64 64 65 66 70 71 72 71 72 73 74 73 73 71 71 70 70 68 67 68 67 68 69 68 69 68 69 69 70 70 71 71 71 70 68 66 66 66 66 66 66 65 64 63
54 54 56 60 62 62 59 57 60 68 70 72 72 74 74 75 71 71 71 71 69 68 68 69 67 67 68 68 68 68 69 68 68 69 68 70 71 71 69 68 67 66 66 66 65 65 64 64 63
50 64 64 61 57 53 59 48 56 60 65 68 73 71 73 73 74 73 73 69 70 72 71 69 68 67 68 68 68 69 68 67 67 68 68 69 70 70 70 68 67 66 66 64 65 66 64 62 61
63 66 62 60 54 52 52 50 58 58 61 65 69 74 75 75 77 75 75 76 74 74 71 70 68 67 67 68 68 68 67 67 67 67 68 68 68 69 70 68 68 66 64 64 65 65 64 63 62
72 62 57 51 49 44 56 53 53 55 62 68 72 75 77 77 76 77 77 74 73 71 71 68 68 68 68 68 67 67 67 67 66 67 67 67 67 67 68 69 67 66 65 65 64 64 63 63 62
63 53 44 44 44 45 55 50 57 62 64 72 74 76 78 78 77 75 72 71 69 70 69 69 69 67 68 68 67 68 68 68 68 67 66 66 66 66 67 68 66 66 66 65 64 63 63 63 62
57 56 46 40 41 47 53 48 59 65 69 68 74 78 77 74 77 76 74 72 72 71 70 70 68 67 68 68 67 68 68 67 68 68 66 66 66 66 67 67 66 67 66 65 65 64 63 63 62
54 52 58 49 44 44 47 56 64 65 67 65 66 69 71 73 74 75 75 73 73 71 71 69 68 68 68 68 68 68 68 67 67 67 66 66 66 67 67 66 66 66 66 66 65 64 64 63 63
58 63 51 46 40 37 46 49 53 60 65 64 64 64 66 68 71 69 70 72 69 66 65 68 69 68 69 69 69 69 68 67 66 66 66 66 65 64 65 66 65 66 65 65 64 63 63 62 62
57 52 51 50 46 43 41 45 58 60 64 62 64 62 63 63 65 65 65 66 65 65 65 64 67 67 66 67 67 67 66 66 66 65 65 64 64 64 65 64 64 64 64 63 63 63 63 62 61
58 55 53 45 46 44 44 46 61 60 62 61 61 60 61 64 64 65 63 64 62 61 63 64 65 65 64 65 65 64 64 64 64 63 64 64 62 63 64 63 63 64 63 62 61 61 61 60 60
MSLP
1009.77 1009.86 1009.95 1010.13 1011.17 1011.40 1011.11 1010.57 1009.85 1009.73 1009.77 1009.86 1010.27 1011.05 1011.96 1012.78 1013.34 1014.56 1014.51 1014.60 1014.61 1015.16 1015.37 1015.69 1015.87 1016.10 1016.33 1016.47 1016.71 1016.80 1016.87 1016.97 1016.97 1017.04 1017.13 1017.13 1017.15 1017.04 1016.93 1016.83 1016.72 1016.65 1016.62 1016.60 1016.54 1016.48 1016.58 1016.61 1016.62
1009.97 1010.19 1010.33 1010.87 1011.41 1011.84 1011.01 1010.20 1009.95 1009.89 1010.02 1009.98 1010.50 1011.18 1012.08 1013.09 1013.47 1014.04 1014.50 1014.86 1014.80 1015.18 1015.61 1015.88 1015.98 1016.19 1016.44 1016.66 1016.82 1017.01 1017.10 1017.21 1017.22 1017.23 1017.30 1017.36 1017.39 1017.34 1017.29 1017.20 1017.11 1017.03 1017.00 1016.98 1016.91 1016.83 1016.74 1016.70 1016.76
1010.12 1010.16 1010.88 1011.45 1011.88 1011.65 1010.73 1009.96 1009.90 1009.96 1009.91 1009.90 1010.77 1011.38 1012.29 1013.24 1013.72 1014.15 1014.46 1014.87 1015.07 1015.47 1015.75 1015.87 1016.09 1016.32 1016.56 1016.86 1017.18 1017.39 1017.48 1017.52 1017.58 1017.65 1017.70 1017.68 1017.67 1017.69 1017.68 1017.65 1017.56 1017.47 1017.48 1017.44 1017.40 1017.25 1017.21 1017.07 1016.98
1010.26 1010.88 1011.54 1011.55 1011.66 1010.64 1010.06 1009.70 1009.72 1010.18 1010.10 1010.40 1011.14 1012.02 1012.64 1012.81 1013.40 1013.89 1014.54 1014.78 1015.26 1015.64 1015.87 1015.94 1016.36 1016.67 1016.87 1017.15 1017.31 1017.50 1017.68 1017.78 1017.87 1017.95 1017.97 1017.90 1017.86 1017.89 1017.96 1018.03 1017.99 1017.94 1017.86 1017.77 1017.65 1017.63 1017.47 1017.30 1017.17
1010.49 1011.17 1011.79 1011.83 1011.09 1010.10 1009.42 1009.44 1009.69 1010.20 1010.41 1011.04 1011.47 1012.53 1013.17 1013.53 1013.53 1014.18 1014.66 1015.05 1015.31 1015.86 1016.12 1016.28 1016.50 1016.75 1017.02 1017.28 1017.57 1017.78 1017.95 1018.08 1018.18 1018.24 1018.17 1018.13 1018.12 1018.11 1018.26 1018.31 1018.33 1018.30 1018.17 1018.10 1017.99 1017.82 1017.61 1017.31 1017.24
1010.90 1011.51 1012.02 1011.84 1010.89 1009.88 1009.35 1009.13 1009.57 1010.06 1010.59 1011.42 1011.91 1012.63 1013.71 1013.95 1014.09 1014.52 1014.92 1015.47 1015.75 1016.17 1016.34 1016.51 1016.67 1016.93 1017.17 1017.42 1017.65 1017.83 1018.03 1018.16 1018.21 1018.25 1018.23 1018.15 1018.08 1018.10 1018.28 1018.44 1018.54 1018.50 1018.50 1018.40 1018.30 1018.07 1017.97 1017.85 1017.79
1010.79 1011.67 1011.83 1011.46 1010.65 1009.87 1009.28 1009.14 1009.58 1010.11 1010.72 1011.29 1011.49 1012.81 1014.03 1014.46 1014.72 1014.95 1015.41 1015.89 1016.11 1016.31 1016.63 1016.82 1016.94 1017.13 1017.35 1017.61 1017.86 1018.06 1018.21 1018.30 1018.34 1018.42 1018.46 1018.47 1018.37 1018.30 1018.35 1018.50 1018.60 1018.63 1018.60 1018.61 1018.61 1018.49 1018.39 1018.34 1018.35
1010.52 1011.31 1011.55 1011.03 1010.45 1009.55 1008.98 1009.25 1009.36 1010.15 1010.67 1010.90 1011.07 1012.48 1013.72 1014.20 1014.80 1015.33 1015.84 1016.25 1016.57 1016.64 1017.02 1017.18 1017.27 1017.42 1017.65 1017.86 1018.00 1018.04 1018.13 1018.34 1018.49 1018.60 1018.59 1018.62 1018.70 1018.77 1018.74 1018.79 1018.79 1018.84 1018.86 1018.80 1018.77 1018.71 1018.70 1018.75 1018.65
1009.99 1010.98 1011.27 1010.51 1009.95 1009.09 1009.06 1009.38 1009.67 1009.91 1010.48 1010.87 1011.12 1011.80 1012.61 1013.92 1014.86 1015.59 1016.26 1016.66 1016.78 1017.06 1017.32 1017.32 1017.40 1017.61 1017.88 1018.05 1017.96 1017.95 1018.06 1018.21 1018.40 1018.60 1018.69 1018.75 1018.92 1018.97 1018.96 1018.84 1018.83 1018.91 1018.95 1018.79 1018.82 1018.73 1018.69 1018.76 1018.88
1009.89 1010.88 1010.26 1009.16 1008.70 1008.92 1008.94 1009.00 1009.46 1010.12 1010.63 1011.07 1011.62 1012.25 1012.85 1014.00 1014.80 1015.27 1015.92 1016.33 1016.62 1016.86 1017.23 1017.47 1017.46 1017.59 1017.83 1017.89 1017.94 1018.03 1018.18 1018.32 1018.50 1018.77 1018.89 1019.02 1019.07 1019.09 1018.93 1018.79 1018.74 1018.80 1018.93 1018.92 1018.95 1018.90 1018.83 1018.97 1019.12
1009.70 1009.80 1009.14 1008.34 1008.08 1008.19 1008.95 1009.36 1009.64 1010.06 1010.84 1010.74 1011.12 1012.37 1013.02 1013.93 1014.75 1015.10 1015.53 1015.87 1016.07 1016.50 1016.98 1017.29 1017.39 1017.54 1017.76 1017.81 1018.15 1018.43 1018.51 1018.61 1018.75 1018.82 1018.96 1019.09 1019.11 1019.17 1019.16 1019.15 1019.08 1018.87 1018.81 1018.97 1019.18 1019.25 1019.18 1019.29 1019.34
1009.03 1008.65 1008.59 1007.87 1007.75 1007.98 1008.86 1009.30 1009.67 1009.95 1009.84 1009.94 1011.09 1011.82 1012.86 1013.72 1014.34 1014.71 1014.98 1015.19 1015.73 1016.16 1016.46 1016.75 1017.03 1017.45 1017.69 1017.81 1018.01 1018.37 1018.55 1018.73 1018.77 1018.68 1018.84 1019.04 1019.13 1019.07 1019.16 1019.08 1019.28 1019.21 1018.97 1019.21 1019.23 1019.19 1019.34 1019.46 1019.61
1008.65 1008.13 1007.84 1007.47 1007.44 1007.85 1008.23 1009.01 1009.64 1009.76 1009.92 1010.21 1011.32 1012.27 1012.99 1013.38 1013.75 1014.30 1014.68 1015.04 1015.46 1015.76 1016.07 1016.25 1016.53 1016.96 1017.16 1017.44 1017.66 1017.96 1018.28 1018.33 1018.40 1018.55 1018.65 1018.74 1018.85 1018.80 1018.90 1019.07 1019.13 1019.09 1019.03 1019.27 1019.37 1019.39 1019.47 1019.50 1019.73
1007.79 1007.66 1007.32 1007.41 1007.09 1007.82 1008.25 1009.22 1009.67 1009.52 1010.32 1010.76 1011.51 1012.12 1012.74 1013.00 1013.23 1013.91 1014.37 1014.70 1014.99 1015.27 1015.55 1015.84 1016.29 1016.54 1016.95 1017.18 1017.28 1017.41 1017.69 1017.82 1018.22 1018.33 1018.40 1018.51 1018.62 1018.77 1018.79 1018.81 1018.85 1018.89 1019.00 1019.27 1019.38 1019.49 1019.66 1019.68 1019.66
1007.45 1007.64 1007.25 1007.67 1007.41 1008.15 1008.39 1009.92 1009.61 1009.70 1010.33 1010.72 1011.42 1011.92 1012.36 1012.58 1013.04 1012.93 1013.07 1013.77 1014.07 1014.31 1014.88 1015.34 1015.94 1016.38 1016.83 1017.04 1017.13 1017.35 1017.43 1017.65 1017.83 1017.89 1018.04 1018.14 1018.37 1018.47 1018.50 1018.73 1018.76 1018.69 1018.69 1018.95 1019.36 1019.64 1019.91 1020.19 1020.23
1007.73 1007.85 1008.06 1007.79 1007.68 1008.18 1008.30 1008.86 1009.61 1009.82 1010.28 1010.73 1011.23 1011.63 1012.01 1012.27 1012.18 1012.37 1012.78 1013.26 1013.78 1014.22 1014.57 1015.07 1015.52 1016.04 1016.51 1016.83 1016.94 1016.98 1017.40 1017.49 1017.49 1017.74 1017.89 1017.86 1018.04 1018.23 1018.54 1018.59 1018.61 1018.64 1018.87 1019.01 1019.29 1019.68 1020.15 1020.23 1020.33
1008.56 1008.51 1008.48 1008.09 1007.88 1008.18 1008.64 1009.05 1009.27 1009.77 1010.35 1010.65 1010.86 1011.34 1011.44 1011.76 1011.93 1011.91 1012.07 1012.57 1013.08 1013.40 1014.15 1014.71 1015.09 1015.51 1016.10 1016.55 1016.62 1016.77 1017.06 1017.23 1017.34 1017.49 1017.50 1017.62 1017.76 1017.84 1018.02 1018.44 1018.75 1018.70 1018.94 1019.23 1019.41 1019.91 1020.13 1020.48 1020.44
1008.80 1008.68 1008.77 1008.29 1008.21 1008.49 1008.81 1008.95 1009.34 1009.33 1009.80 1010.32 1010.53 1010.87 1011.03 1011.15 1011.00 1011.08 1011.50 1011.90 1012.55 1013.11 1013.67 1014.16 1014.69 1015.04 1015.53 1015.98 1016.26 1016.69 1017.05 1017.15 1017.11 1017.12 1017.33 1017.35 1017.56 1017.81 1018.23 1018.37 1018.44 1018.82 1019.04 1019.35 1019.47 1019.58 1019.76 1019.92 1020.12
1008.40 1008.38 1008.68 1008.71 1008.03 1008.44 1008.84 1008.96 1009.15 1009.28 1009.81 1010.08 1010.34 1010.44 1010.58 1010.75 1010.26 1010.93 1011.38 1011.80 1012.33 1013.02 1013.61 1013.80 1014.24 1014.62 1015.24 1015.84 1016.40 1016.85 1016.91 1016.81 1016.86 1016.82 1017.05 1017.40 1017.55 1017.76 1017.96 1018.30 1018.66 1018.85 1019.04 1019.28 1019.50 1019.78 1019.89 1019.91 1020.17
1008.54 1008.51 1008.55 1008.58 1008.23 1008.58 1008.79 1008.97 1008.64 1009.07 1008.45 1008.51 1009.01 1009.57 1009.73 1010.14 1010.34 1010.53 1011.11 1011.62 1012.02 1012.32 1012.81 1013.42 1013.86 1014.23 1014.50 1014.88 1015.51 1015.89 1016.12 1016.25 1016.45 1016.55 1016.79 1016.90 1017.10 1017.37 1017.78 1018.19 1018.68 1018.86 1019.16 1019.24 1019.49 1019.78 1019.94 1019.95 1020.08
1008.56 1008.65 1008.47 1008.62 1009.11 1009.07 1009.28 1009.68 1009.40 1008.51 1008.49 1008.62 1008.83 1009.04 1009.41 1009.53 1010.10 1010.38 1010.87 1011.11 1011.77 1012.19 1012.16 1012.63 1013.03 1013.90 1014.17 1014.76 1015.45 1015.99 1016.14 1016.23 1016.41 1016.46 1016.40 1016.44 1016.58 1016.95 1017.48 1017.93 1018.44 1018.71 1018.88 1019.20 1019.35 1019.58 1019.88 1019.90 1019.95
1008.30 1007.95 1008.18 1008.60 1009.02 1009.34 1009.03 1009.89 1009.19 1008.46 1008.15 1008.43 1008.10 1008.18 1008.41 1008.89 1009.07 1009.58 1010.27 1010.83 1011.13 1011.31 1011.87 1012.28 1012.95 1013.50 1013.97 1014.61 1015.25 1015.52 1015.36 1015.68 1015.64 1015.71 1015.92 1016.23 1016.44 1016.80 1017.25 1017.67 1017.97 1018.21 1018.47 1018.83 1019.11 1019.33 1019.52 1019.76 1019.87
1007.48 1007.64 1008.30 1008.74 1009.39 1009.76 1009.89 1010.06 1008.87 1008.63 1008.21 1007.79 1007.25 1006.89 1007.14 1007.59 1008.04 1008.54 1009.09 1009.37 1009.89 1010.89 1011.18 1011.79 1012.73 1013.29 1013.82 1014.16 1014.82 1015.33 1015.52 1015.42 1015.54 1015.99 1015.95 1016.01 1015.90 1016.18 1016.79 1017.33 1017.53 1017.82 1018.02 1018.45 1018.82 1019.00 1019.02 1019.18 1019.30
1006.89 1007.64 1008.72 1009.70 1010.25 1010.59 1009.64 1009.69 1008.82 1008.42 1006.87 1006.05 1005.72 1005.94 1006.33 1006.77 1007.30 1007.68 1008.21 1008.92 1009.75 1010.35 1010.86 1011.44 1012.34 1012.69 1013.22 1013.82 1014.54 1014.80 1015.07 1015.21 1015.68 1016.07 1016.14 1016.36 1016.18 1015.43 1016.14 1016.61 1017.17 1017.51 1017.72 1017.90 1017.95 1018.12 1018.60 1018.87 1019.03
1007.03 1008.27 1009.64 1010.74 1011.13 1010.87 1009.50 1009.42 1007.61 1006.32 1005.79 1005.10 1004.35 1004.29 1004.84 1005.46 1006.37 1007.10 1007.77 1008.50 1009.15 1009.88 1010.29 1010.91 1011.60 1012.48 1013.07 1013.50 1014.13 1014.51 1014.70 1014.94 1015.32 1015.75 1016.04 1016.13 1016.34 1016.01 1016.02 1016.42 1016.58 1016.72 1017.22 1017.67 1017.72 1017.90 1018.25 1018.35 1018.53
1007.20 1008.13 1009.65 1010.55 1011.25 1010.86 1009.78 1008.50 1006.41 1005.58 1005.14 1004.73 1003.99 1003.64 1004.69 1005.28 1005.49 1006.09 1006.76 1007.59 1008.27 1008.74 1009.27 1010.30 1010.96 1011.77 1012.57 1013.06 1013.83 1014.27 1014.71 1015.10 1015.28 1015.37 1015.83 1016.01 1016.24 1016.22 1015.82 1015.47 1015.48 1016.25 1016.96 1017.20 1017.33 1017.60 1017.86 1017.83 1017.98
1007.34 1008.04 1008.61 1009.97 1011.13 1010.96 1009.58 1007.89 1006.18 1005.26 1005.18 1004.87 1004.40 1003.83 1004.23 1004.71 1005.32 1005.73 1006.11 1006.81 1007.86 1008.79 1009.73 1010.82 1011.13 1011.35 1012.01 1012.92 1013.34 1013.81 1014.34 1014.66 1015.08 1015.47 1015.87 1015.86 1015.82 1015.75 1015.51 1015.58 1015.79 1016.47 1016.96 1017.15 1017.27 1017.52 1017.52 1017.60 1017.63
1007.00 1007.66 1008.88 1010.34 1011.33 1011.32 1009.84 1008.54 1006.76 1005.98 1005.53 1005.17 1004.97 1004.24 1004.14 1004.39 1005.29 1006.23 1006.73 1007.51 1008.70 1009.49 1010.49 1010.25 1011.23 1011.83 1011.93 1012.69 1013.41 1013.71 1014.07 1014.75 1015.08 1015.50 1015.72 1015.81 1015.85 1015.79 1015.66 1016.18 1016.48 1016.82 1017.01 1017.10 1017.16 1017.32 1017.44 1017.44 1017.36
1007.65 1008.14 1009.12 1010.23 1010.83 1010.93 1010.26 1008.76 1006.24 1005.90 1005.83 1005.80 1005.32 1005.45 1005.14 1005.51 1006.08 1006.62 1007.57 1008.84 1009.89 1011.31 1010.66 1011.44 1011.53 1011.92 1011.98 1012.60 1013.44 1013.86 1014.21 1014.52 1015.10 1015.55 1015.77 1015.98 1016.05 1015.99 1016.48 1016.56 1016.90 1017.08 1017.07 1016.95 1016.79 1016.92 1017.04 1017.31 1017.38
1007.72 1008.19 1008.96 1010.34 1010.84 1010.70 1009.93 1007.88 1006.37 1006.10 1005.92 1006.19 1006.51 1006.36 1006.37 1006.23 1006.92 1007.18 1008.21 1009.05 1010.15 1011.09 1013.54 1012.21 1012.57 1012.33 1012.41 1013.32 1014.14 1014.40 1014.72 1015.00 1015.41 1015.82 1015.96 1016.21 1016.43 1016.36 1016.52 1016.60 1016.83 1017.09 1017.19 1017.17 1017.24 1017.27 1017.26 1017.30 1017.13
Wind_Speed
4 3 2 4 5 5 0 1 1 1 3 2 4 2 5 3 1 3 4 6 13 9 7 8 13 12 12 12 11 11 11 11 12 12 12 12 11 12 12 9 12 13 13 11 9 9 9 7 8
4 2 4 2 6 4 5 2 3 3 4 6 8 4 4 3 3 8 6 8 11 10 7 6 13 13 12 12 11 10 11 11 12 12 11 11 11 12 11 15 13 14 15 14 13 12 11 9 8
5 3 4 5 3 3 4 1 4 5 5 2 4 5 3 2 7 9 8 11 10 8 6 7 13 13 12 11 11 10 10 10 11 11 10 11 11 11 12 13 14 15 14 13 12 11 9 8 7
3 4 5 5 1 4 3 4 4 5 2 6 6 7 4 4 8 8 13 13 12 7 6 11 13 11 11 11 10 10 10 10 10 10 10 10 10 11 12 13 13 14 12 11 11 9 7 3 2
4 3 4 3 3 3 3 6 7 4 3 3 3 3 4 3 11 15 13 11 12 8 6 7 13 12 11 10 10 9 9 9 9 9 9 9 10 9 11 12 13 12 11 11 11 9 6 2 3
4 3 5 2 4 1 0 5 5 3 4 3 5 5 2 7 10 11 11 8 7 7 6 6 13 12 11 10 10 9 8 8 8 8 8 7 8 9 9 11 11 11 10 10 12 12 12 10 11
6 4 4 3 3 1 6 7 3 5 6 2 6 5 2 3 6 9 8 7 6 7 5 5 6 9 11 10 9 9 8 7 6 5 5 6 7 8 8 8 9 9 9 9 10 11 12 12 10
6 5 2 3 5 6 5 6 7 5 2 5 7 6 5 5 9 10 9 7 9 9 4 4 5 5 5 5 9 9 8 7 5 5 4 5 7 7 6 6 6 7 8 8 9 8 7 9 10
4 5 1 4 5 4 6 4 3 4 9 2 2 6 8 15 13 10 9 9 7 7 4 4 5 5 5 5 6 8 10 8 7 4 3 3 3 3 4 3 4 5 5 6 11 9 4 9 8
5 4 6 5 5 4 7 5 9 4 5 1 5 8 17 16 14 13 11 12 12 12 11 5 5 6 6 5 4 5 4 3 3 2 1 0 0 1 2 2 2 3 4 6 10 6 3 6 3
3 5 4 6 2 11 6 4 2 8 4 8 15 15 17 16 11 11 11 9 12 11 10 9 6 6 6 4 3 1 1 2 2 3 3 2 1 2 2 1 2 1 1 2 4 4 3 5 4
3 6 5 6 7 7 10 8 4 7 5 6 9 18 15 16 13 12 12 12 11 11 11 9 8 6 6 3 4 4 3 2 3 4 4 2 2 2 2 2 2 2 1 1 2 2 4 5 4
4 4 4 5 6 9 12 7 5 12 3 14 12 13 14 15 14 10 6 6 7 10 10 11 10 9 8 6 4 4 4 4 4 4 4 3 3 3 2 2 2 2 2 1 2 2 4 5 5
7 5 6 2 6 8 10 4 7 9 7 12 15 14 13 15 16 8 8 9 10 9 11 9 10 9 7 7 6 6 4 5 4 4 4 5 3 2 3 3 3 2 3 2 2 3 3 4 6
1 3 4 6 4 5 11 1 8 3 8 13 13 14 13 14 11 16 16 14 15 11 11 11 10 7 8 8 6 4 5 4 4 4 5 6 4 5 3 2 3 3 2 5 3 3 2 2 2
3 6 4 3 2 4 7 15 3 8 12 14 12 11 13 14 16 15 12 12 10 8 11 10 10 10 9 7 5 4 4 4 4 4 4 6 5 5 4 3 3 1 1 2 4 3 1 2 3
7 3 2 2 1 5 4 5 7 8 10 13 12 11 12 11 9 11 12 12 12 12 11 10 10 11 10 7 6 5 6 4 4 4 4 5 6 6 5 3 1 3 3 1 2 2 2 2 3
4 5 2 1 1 3 4 6 2 13 14 16 13 10 10 9 16 13 12 12 10 9 10 9 8 9 9 6 3 2 2 3 4 4 4 6 4 3 2 3 4 3 2 2 2 2 2 2 3
4 4 4 4 3 6 10 9 9 14 11 11 12 12 11 12 12 6 7 7 7 7 9 11 12 9 8 4 3 2 3 3 3 3 4 4 4 3 4 2 2 2 3 3 3 2 3 2 2
0 2 3 2 4 4 8 14 4 13 22 21 19 16 17 12 7 7 8 8 10 11 11 10 11 10 9 6 3 3 3 2 2 3 4 5 6 5 4 4 3 3 2 2 2 2 1 1 3
2 4 3 6 5 4 7 4 4 9 7 9 9 11 10 14 10 8 9 11 8 11 14 13 12 10 9 7 5 3 2 3 2 2 3 4 5 5 4 5 3 3 2 2 3 3 4 2 2
2 8 5 4 3 3 2 5 6 5 11 8 14 12 13 12 8 9 10 9 12 15 9 9 9 10 6 7 5 6 5 4 4 4 3 3 4 5 5 4 5 4 2 4 3 2 3 3 3
8 6 6 4 4 4 2 5 8 0 7 14 16 19 16 15 15 14 15 17 16 11 12 11 9 8 7 10 8 6 2 3 2 2 5 5 5 6 6 4 3 4 3 3 4 4 4 3 3
3 3 6 5 4 2 7 8 7 6 10 11 21 18 16 15 13 13 12 9 9 7 9 9 12 12 10 9 7 8 7 5 3 2 1 2 3 5 4 4 3 4 4 5 5 4 4 4 4
4 7 4 4 4 7 1 5 10 7 9 14 19 21 19 17 15 13 11 11 11 13 12 10 12 10 8 7 7 7 6 6 5 5 4 3 1 3 5 4 4 3 5 4 4 4 5 4 4
3 7 6 5 4 5 2 5 8 6 6 9 13 17 9 14 17 18 16 13 15 16 14 12 10 7 7 7 6 5 5 3 4 4 3 3 2 2 3 5 3 3 4 3 4 3 3 4 4
1 2 3 6 2 3 4 8 9 5 7 6 9 6 11 14 15 18 14 14 12 11 11 8 9 8 8 6 6 6 6 6 5 1 2 1 2 1 3 6 5 3 3 3 1 1 2 2 3
3 5 1 3 3 4 5 5 7 5 9 7 8 7 9 10 8 6 6 6 9 10 7 9 9 8 7 6 4 5 5 4 3 4 3 2 2 4 6 3 3 1 2 2 2 1 1 1 2
5 4 4 5 5 5 3 8 7 8 6 9 6 6 5 10 11 10 10 13 14 13 11 5 9 8 8 7 4 4 4 5 4 3 2 3 2 3 2 4 3 3 3 3 3 3 3 3 4
3 5 5 6 5 3 3 9 4 6 6 3 6 3 5 11 10 9 14 16 13 16 11 5 4 8 8 6 4 4 5 5 5 3 3 4 5 5 5 5 5 4 4 4 5 4 4 3 4
Wind_Direction
108 81 55 39 59 66 332 246 60 344 49 8 93 92 125 44 104 197 131 129 126 124 125 139 135 126 121 112 105 101 95 90 89 86 82 79 75 75 78 73 70 82 78 88 90 91 89 90 108
129 100 39 75 81 51 289 251 161 245 120 101 94 101 59 87 79 122 114 137 124 124 122 141 136 130 127 121 115 108 101 99 96 90 82 75 71 73 69 71 73 74 71 70 68 71 79 100 120
132 36 76 85 97 156 217 219 111 137 140 79 90 60 103 114 123 136 132 129 117 118 133 155 144 142 133 124 110 104 100 98 91 85 78 74 73 76 71 75 74 73 72 69 66 66 71 89 120
122 21 28 77 145 246 230 154 140 148 100 58 102 76 75 173 157 140 133 134 127 133 147 144 144 135 127 120 119 112 105 100 92 85 79 77 78 85 80 79 78 78 74 66 58 49 50 59 145
44 66 64 81 262 267 222 159 140 171 80 94 127 112 85 41 107 131 137 139 140 138 141 136 144 142 136 129 116 110 106 103 94 84 77 75 76 76 77 79 80 78 72 59 48 40 31 15 141
50 90 62 152 257 211 350 150 158 111 86 141 84 95 93 118 127 139 132 133 126 132 129 148 149 147 143 133 128 124 121 117 106 92 85 90 90 85 76 78 84 80 69 60 54 49 55 64 69
115 93 177 178 238 235 199 153 171 129 127 162 139 95 59 130 121 121 107 102 116 139 131 142 140 152 149 141 135 133 130 128 117 108 84 81 80 73 68 69 82 83 72 62 55 63 62 66 74
106 90 94 252 204 245 178 142 137 132 117 124 158 162 176 167 129 108 103 107 151 162 141 147 142 132 135 141 145 147 150 151 144 126 106 81 65 58 43 47 62 72 70 58 50 48 83 88 84
131 60 284 247 164 212 144 126 106 107 134 187 121 133 135 129 119 116 121 146 165 173 169 161 151 152 149 152 170 165 164 169 170 158 154 80 73 23 16 357 28 45 64 63 60 56 88 123 111
91 104 227 222 191 187 147 132 145 110 163 134 72 83 126 135 149 150 163 169 181 184 189 183 173 175 162 177 186 172 181 160 168 165 211 112 40 283 292 295 347 355 47 51 74 74 36 106 85
151 177 211 281 229 130 121 98 137 123 246 211 163 151 147 151 164 168 176 182 186 179 188 186 189 181 174 179 171 154 163 176 188 205 203 234 280 289 296 316 317 301 48 61 57 34 51 121 132
132 248 175 274 155 128 156 135 149 170 237 147 155 152 151 164 176 182 184 183 174 179 191 184 189 175 187 174 175 175 182 185 217 215 198 195 244 261 255 216 231 277 314 68 69 70 109 122 128
156 255 195 198 218 154 127 158 178 215 349 112 128 149 168 177 187 195 183 167 166 184 191 192 181 183 190 186 181 179 193 192 211 214 211 198 228 247 228 262 214 228 265 162 118 105 133 143 149
192 241 283 159 191 151 127 154 126 234 140 127 149 174 181 187 191 172 179 183 186 187 195 184 190 191 180 195 191 193 191 192 200 211 219 220 215 244 199 232 236 242 223 154 154 146 157 180 167
212 297 14 15 73 126 101 75 228 156 158 156 168 180 188 203 186 200 192 190 191 196 188 185 181 181 189 199 199 196 211 186 208 217 210 220 209 208 195 204 234 244 192 154 122 97 99 168 238
91 54 41 316 155 152 128 221 176 145 158 185 187 185 188 204 204 205 200 203 190 187 189 178 184 181 193 196 197 197 201 212 219 217 213 222 198 195 189 209 226 304 77 151 139 129 123 200 211
3 120 56 112 315 136 142 236 170 162 175 193 196 202 204 203 222 213 204 195 186 189 179 180 184 178 191 192 205 191 206 216 224 228 217 209 203 196 188 185 224 177 134 131 130 130 141 193 207
170 109 54 121 206 183 197 252 196 177 181 198 193 209 216 216 225 213 200 191 183 184 182 184 181 171 176 185 184 118 197 234 213 214 216 206 213 205 135 160 170 164 140 163 175 178 186 171 207
115 114 141 267 250 133 216 246 207 195 200 201 205 204 212 224 229 216 193 174 163 159 163 180 175 177 166 160 143 144 196 197 219 195 200 201 193 213 168 188 187 172 184 200 194 170 206 241 177
18 141 255 217 237 140 228 242 256 191 208 203 200 205 214 212 207 211 181 174 183 181 183 182 183 171 181 175 140 161 169 187 149 184 187 198 201 190 192 186 201 190 225 211 197 207 195 224 194
218 196 188 216 175 233 140 263 240 239 257 215 213 223 224 216 205 206 193 191 166 181 190 190 183 172 184 145 122 96 90 92 145 207 199 213 198 183 183 187 180 202 192 240 219 218 207 249 213
221 207 214 225 74 220 75 267 293 252 230 225 221 210 211 209 200 193 190 186 189 207 191 182 172 179 178 151 160 187 187 167 193 189 182 195 185 180 180 178 194 214 196 222 233 208 212 184 248
221 155 185 192 164 110 313 101 267 62 248 232 230 223 212 205 205 198 196 201 195 186 190 191 163 159 190 183 190 200 170 163 190 145 204 189 180 169 173 201 204 218 204 224 235 239 218 195 221
243 132 52 52 92 63 224 153 269 196 211 232 236 232 219 207 207 208 199 179 184 158 173 164 174 192 191 180 161 189 191 195 171 195 191 234 231 161 158 185 214 227 237 219 217 234 264 295 271
90 65 336 357 11 217 138 103 231 241 241 230 234 230 212 198 197 199 184 180 165 169 175 177 186 182 180 164 164 201 189 195 196 203 216 183 159 262 144 176 202 222 245 253 263 234 243 229 233
170 145 157 203 197 256 89 224 252 212 252 277 254 247 204 196 200 195 193 184 182 177 177 180 177 160 148 154 151 169 177 176 220 218 184 139 147 225 163 137 82 358 288 253 243 269 280 253 252
138 167 200 111 17 67 247 290 310 243 265 295 288 210 185 184 195 199 187 185 176 168 159 170 136 134 138 149 151 159 177 192 225 248 112 218 183 163 76 26 42 341 326 307 331 311 305 302 305
163 171 61 10 197 246 285 270 233 271 251 260 249 182 177 169 165 145 155 135 94 101 42 114 112 123 125 133 166 169 184 169 130 150 202 137 63 21 30 24 29 23 75 85 100 64 32 295 273
18 337 57 118 147 189 233 261 220 233 251 270 257 309 146 118 118 116 102 86 73 24 122 85 104 111 98 101 87 104 119 131 131 146 134 103 22 29 53 73 94 81 74 56 57 41 24 359 342
139 228 149 126 256 236 181 268 321 278 257 229 266 91 96 109 118 132 108 109 108 98 291 84 103 100 90 87 97 105 113 122 121 137 126 89 84 84 103 96 79 65 52 39 28 14 18 1 334